Time,TemperatureF,DewpointF,PressureIn,WindDirection,WindDirectionDegrees,WindSpeedMPH,WindSpeedGustMPH,Humidity,HourlyPrecipIn,Conditions,Clouds,dailyrainin,SolarRadiationWatts/m^2,SoftwareType,DateUTC
2013-07-17 00:01:00,75.0,73.8,30.21,ENE,68,0.0,1.0,96,0.00,,,0.00,0.0,meteohub,2013-07-17 04:01:00,
2013-07-17 00:02:00,75.0,73.8,30.21,ENE,68,1.0,1.0,96,0.00,,,0.00,0.0,meteohub,2013-07-17 04:02:00,
2013-07-17 00:04:00,75.0,73.8,30.21,ENE,68,0.0,1.0,96,0.00,,,0.00,0.0,meteohub,2013-07-17 04:04:00,
2013-07-17 00:10:00,75.0,73.8,30.21,ENE,71,0.0,1.0,96,0.00,,,0.00,0.0,meteohub,2013-07-17 04:10:00,
2013-07-17 00:17:00,75.0,73.8,30.21,ENE,66,0.0,1.0,96,0.00,,,0.00,0.0,meteohub,2013-07-17 04:17:00,
2013-07-17 00:22:00,75.0,73.8,30.21,ENE,66,0.0,1.0,96,0.00,,,0.00,0.0,meteohub,2013-07-17 04:22:00,
2013-07-17 00:29:00,75.0,73.8,30.20,ENE,66,0.0,2.0,96,0.00,,,0.00,0.0,meteohub,2013-07-17 04:29:00,
2013-07-17 00:35:00,75.0,73.8,30.20,ENE,66,0.0,2.0,96,0.00,,,0.00,0.0,meteohub,2013-07-17 04:35:00,
2013-07-17 00:41:00,75.0,73.8,30.20,ENE,66,0.0,1.0,96,0.00,,,0.00,0.0,meteohub,2013-07-17 04:41:00,
2013-07-17 00:47:00,74.8,73.6,30.19,ENE,66,0.0,1.0,96,0.00,,,0.00,0.0,meteohub,2013-07-17 04:47:00,
2013-07-17 00:52:00,74.8,73.6,30.19,ENE,66,1.0,1.0,96,0.00,,,0.00,0.0,meteohub,2013-07-17 04:52:00,
2013-07-17 00:57:00,74.8,73.6,30.19,ENE,66,0.0,1.0,96,0.00,,,0.00,0.0,meteohub,2013-07-17 04:57:00,
2013-07-17 01:02:00,74.7,73.4,30.19,ENE,66,0.0,1.0,96,0.00,,,0.00,0.0,meteohub,2013-07-17 05:02:00,
2013-07-17 01:03:00,74.7,73.4,30.19,ENE,66,0.0,1.0,96,0.00,,,0.00,0.0,meteohub,2013-07-17 05:03:00,
2013-07-17 01:09:00,74.7,73.8,30.19,ENE,66,0.0,1.0,97,0.00,,,0.00,0.0,meteohub,2013-07-17 05:09:00,
2013-07-17 01:15:00,74.5,73.2,30.19,ENE,66,0.0,1.0,96,0.00,,,0.00,0.0,meteohub,2013-07-17 05:15:00,
2013-07-17 01:22:00,74.3,73.4,30.19,ENE,66,0.0,0.0,97,0.00,,,0.00,0.0,meteohub,2013-07-17 05:22:00,
2013-07-17 01:27:00,74.1,73.2,30.19,ENE,66,0.0,0.0,97,0.00,,,0.00,0.0,meteohub,2013-07-17 05:27:00,
2013-07-17 01:32:00,74.1,73.2,30.19,ENE,66,0.0,0.0,97,0.00,,,0.00,0.0,meteohub,2013-07-17 05:32:00,
2013-07-17 01:37:00,73.9,73.0,30.19,ENE,66,0.0,0.0,97,0.00,,,0.00,0.0,meteohub,2013-07-17 05:37:00,
2013-07-17 01:43:00,73.8,72.9,30.19,ENE,66,0.0,0.0,97,0.00,,,0.00,0.0,meteohub,2013-07-17 05:43:00,
2013-07-17 01:49:00,73.8,72.9,30.19,ENE,66,0.0,0.0,97,0.00,,,0.00,0.0,meteohub,2013-07-17 05:49:00,
2013-07-17 01:55:00,73.8,72.9,30.18,ENE,66,0.0,0.0,97,0.00,,,0.00,0.0,meteohub,2013-07-17 05:55:00,
2013-07-17 02:02:00,73.6,72.7,30.19,ENE,66,0.0,0.0,97,0.00,,,0.00,0.0,meteohub,2013-07-17 06:02:00,
2013-07-17 02:07:00,73.6,72.7,30.18,ENE,66,0.0,0.0,97,0.00,,,0.00,0.0,meteohub,2013-07-17 06:07:00,
2013-07-17 02:12:00,73.6,72.7,30.19,ENE,66,0.0,0.0,97,0.00,,,0.00,0.0,meteohub,2013-07-17 06:12:00,
2013-07-17 02:17:00,73.4,72.5,30.19,ENE,66,0.0,0.0,97,0.00,,,0.00,0.0,meteohub,2013-07-17 06:17:00,
2013-07-17 02:23:00,73.4,72.5,30.19,ENE,66,0.0,0.0,97,0.00,,,0.00,0.0,meteohub,2013-07-17 06:23:00,
2013-07-17 02:29:00,73.2,72.3,30.18,ENE,66,0.0,0.0,97,0.00,,,0.00,0.0,meteohub,2013-07-17 06:29:00,
2013-07-17 02:35:00,73.2,72.3,30.18,ENE,66,0.0,0.0,97,0.00,,,0.00,0.0,meteohub,2013-07-17 06:35:00,
2013-07-17 02:42:00,73.0,72.5,30.18,ENE,66,0.0,0.0,98,0.00,,,0.00,0.0,meteohub,2013-07-17 06:42:00,
2013-07-17 02:47:00,73.0,72.5,30.18,ENE,66,0.0,0.0,98,0.00,,,0.00,0.0,meteohub,2013-07-17 06:47:00,
2013-07-17 02:52:00,73.0,72.5,30.18,ENE,66,0.0,0.0,98,0.00,,,0.00,0.0,meteohub,2013-07-17 06:52:00,
2013-07-17 02:57:00,73.0,72.5,30.18,ENE,66,0.0,0.0,98,0.00,,,0.00,0.0,meteohub,2013-07-17 06:57:00,
2013-07-17 03:03:00,73.0,72.5,30.18,ENE,66,0.0,0.0,98,0.00,,,0.00,0.0,meteohub,2013-07-17 07:03:00,
2013-07-17 03:09:00,72.9,72.0,30.18,ENE,66,0.0,0.0,97,0.00,,,0.00,0.0,meteohub,2013-07-17 07:09:00,
2013-07-17 03:15:00,72.9,72.0,30.18,ENE,66,0.0,1.0,97,0.00,,,0.00,0.0,meteohub,2013-07-17 07:15:00,
2013-07-17 03:22:00,72.9,72.0,30.18,ENE,66,0.0,1.0,97,0.00,,,0.00,0.0,meteohub,2013-07-17 07:22:00,
2013-07-17 03:27:00,72.7,71.8,30.18,ENE,66,0.0,1.0,97,0.00,,,0.00,0.0,meteohub,2013-07-17 07:27:00,
2013-07-17 03:34:00,72.9,72.0,30.18,ENE,66,0.0,1.0,97,0.00,,,0.00,0.0,meteohub,2013-07-17 07:34:00,
2013-07-17 03:40:00,72.9,72.3,30.18,ENE,66,0.0,0.0,98,0.00,,,0.00,0.0,meteohub,2013-07-17 07:40:00,
2013-07-17 03:46:00,72.9,72.3,30.18,ENE,66,0.0,0.0,98,0.00,,,0.00,0.0,meteohub,2013-07-17 07:46:00,
2013-07-17 03:52:00,72.9,72.3,30.18,ENE,66,0.0,1.0,98,0.00,,,0.00,0.0,meteohub,2013-07-17 07:52:00,
2013-07-17 03:57:00,72.9,72.3,30.18,ENE,66,0.0,1.0,98,0.00,,,0.00,0.0,meteohub,2013-07-17 07:57:00,
2013-07-17 04:02:00,72.9,72.3,30.18,ENE,66,0.0,1.0,98,0.00,,,0.00,0.0,meteohub,2013-07-17 08:02:00,
2013-07-17 04:07:00,72.9,72.3,30.18,ENE,66,0.0,1.0,98,0.00,,,0.00,0.0,meteohub,2013-07-17 08:07:00,
2013-07-17 04:12:00,72.9,72.3,30.18,ENE,66,0.0,0.0,98,0.00,,,0.00,0.0,meteohub,2013-07-17 08:12:00,
2013-07-17 04:17:00,72.9,72.3,30.18,ENE,66,0.0,0.0,98,0.00,,,0.00,0.0,meteohub,2013-07-17 08:17:00,
2013-07-17 04:22:00,72.7,72.1,30.18,ENE,66,0.0,1.0,98,0.00,,,0.00,0.0,meteohub,2013-07-17 08:22:00,
2013-07-17 04:27:00,72.7,72.1,30.18,ENE,66,0.0,1.0,98,0.00,,,0.00,0.0,meteohub,2013-07-17 08:27:00,
2013-07-17 04:32:00,72.5,72.0,30.18,ENE,66,0.0,0.0,98,0.00,,,0.00,0.0,meteohub,2013-07-17 08:32:00,
2013-07-17 04:37:00,72.5,72.0,30.18,ENE,66,0.0,0.0,98,0.00,,,0.00,0.0,meteohub,2013-07-17 08:37:00,
2013-07-17 04:42:00,72.3,71.8,30.18,ENE,66,0.0,0.0,98,0.00,,,0.00,0.0,meteohub,2013-07-17 08:42:00,
2013-07-17 04:47:00,72.3,71.8,30.18,ENE,66,0.0,0.0,98,0.00,,,0.00,0.0,meteohub,2013-07-17 08:47:00,
2013-07-17 04:52:00,72.1,71.6,30.18,ENE,66,0.0,0.0,98,0.00,,,0.00,0.0,meteohub,2013-07-17 08:52:00,
2013-07-17 04:57:00,72.1,71.6,30.18,ENE,66,0.0,0.0,98,0.00,,,0.00,0.0,meteohub,2013-07-17 08:57:00,
2013-07-17 05:03:00,72.1,71.6,30.18,ENE,66,0.0,0.0,98,0.00,,,0.00,0.0,meteohub,2013-07-17 09:03:00,
2013-07-17 05:09:00,72.0,71.4,30.18,ENE,66,0.0,0.0,98,0.00,,,0.00,0.0,meteohub,2013-07-17 09:09:00,
2013-07-17 05:16:00,72.1,71.6,30.18,ENE,66,0.0,0.0,98,0.00,,,0.00,0.0,meteohub,2013-07-17 09:16:00,
2013-07-17 05:22:00,72.0,71.4,30.18,ENE,66,0.0,0.0,98,0.00,,,0.00,0.0,meteohub,2013-07-17 09:22:00,
2013-07-17 05:28:00,72.0,71.4,30.18,ENE,66,0.0,0.0,98,0.00,,,0.00,0.0,meteohub,2013-07-17 09:28:00,
2013-07-17 05:34:00,72.1,71.6,30.18,ENE,66,0.0,1.0,98,0.00,,,0.00,0.0,meteohub,2013-07-17 09:34:00,
2013-07-17 05:40:00,72.1,71.6,30.18,ENE,66,0.0,1.0,98,0.00,,,0.00,0.0,meteohub,2013-07-17 09:40:00,
2013-07-17 05:47:00,72.0,71.4,30.18,ENE,66,0.0,0.0,98,0.00,,,0.00,0.0,meteohub,2013-07-17 09:47:00,
2013-07-17 05:52:00,72.1,71.6,30.18,ENE,66,0.0,0.0,98,0.00,,,0.00,0.0,meteohub,2013-07-17 09:52:00,
2013-07-17 05:57:00,72.3,71.8,30.18,ENE,66,0.0,0.0,98,0.00,,,0.00,0.0,meteohub,2013-07-17 09:57:00,
2013-07-17 06:02:00,72.5,72.0,30.19,ENE,66,0.0,0.0,98,0.00,,,0.00,0.0,meteohub,2013-07-17 10:02:00,
2013-07-17 06:07:00,72.5,72.0,30.18,ENE,66,0.0,0.0,98,0.00,,,0.00,0.0,meteohub,2013-07-17 10:07:00,
2013-07-17 06:12:00,72.5,72.0,30.18,ENE,66,0.0,1.0,98,0.00,,,0.00,0.0,meteohub,2013-07-17 10:12:00,
2013-07-17 06:17:00,72.5,72.0,30.18,ENE,66,0.0,1.0,98,0.00,,,0.00,0.0,meteohub,2013-07-17 10:17:00,
2013-07-17 06:22:00,72.7,72.1,30.19,ENE,66,0.0,1.0,98,0.00,,,0.00,0.0,meteohub,2013-07-17 10:22:00,
2013-07-17 06:27:00,72.7,72.1,30.19,ENE,66,0.0,1.0,98,0.00,,,0.00,0.0,meteohub,2013-07-17 10:27:00,
2013-07-17 06:32:00,72.7,72.1,30.19,ENE,66,0.0,1.0,98,0.00,,,0.00,0.0,meteohub,2013-07-17 10:32:00,
2013-07-17 06:39:00,72.7,72.1,30.19,ENE,66,0.0,1.0,98,0.00,,,0.00,0.0,meteohub,2013-07-17 10:39:00,
2013-07-17 06:45:00,72.9,72.3,30.19,ENE,66,0.0,1.0,98,0.00,,,0.00,7.0,meteohub,2013-07-17 10:45:00,
2013-07-17 06:52:00,72.9,72.3,30.19,ENE,66,0.0,2.0,98,0.00,,,0.00,11.0,meteohub,2013-07-17 10:52:00,
2013-07-17 06:57:00,72.9,72.3,30.18,ENE,66,0.0,2.0,98,0.00,,,0.00,12.0,meteohub,2013-07-17 10:57:00,
2013-07-17 07:04:00,72.9,72.3,30.18,ENE,66,0.0,2.0,98,0.00,,,0.00,19.0,meteohub,2013-07-17 11:04:00,
2013-07-17 07:10:00,73.0,72.5,30.19,ENE,66,0.0,2.0,98,0.00,,,0.00,23.0,meteohub,2013-07-17 11:10:00,
2013-07-17 07:17:00,73.2,72.9,30.19,ENE,66,0.0,1.0,99,0.00,,,0.00,32.0,meteohub,2013-07-17 11:17:00,
2013-07-17 07:22:00,73.2,72.9,30.19,ENE,66,0.0,1.0,99,0.00,,,0.00,37.0,meteohub,2013-07-17 11:22:00,
2013-07-17 07:29:00,73.6,73.2,30.19,ENE,66,0.0,1.0,99,0.00,,,0.00,46.0,meteohub,2013-07-17 11:29:00,
2013-07-17 07:35:00,73.8,73.4,30.19,ENE,66,0.0,1.0,99,0.00,,,0.00,60.0,meteohub,2013-07-17 11:35:00,
2013-07-17 07:41:00,73.8,73.4,30.19,ENE,66,0.0,2.0,99,0.00,,,0.00,63.0,meteohub,2013-07-17 11:41:00,
2013-07-17 07:47:00,73.9,73.6,30.19,ENE,66,0.0,2.0,99,0.00,,,0.00,74.0,meteohub,2013-07-17 11:47:00,
2013-07-17 07:54:00,74.3,73.9,30.19,ENE,66,0.0,2.0,99,0.00,,,0.00,86.0,meteohub,2013-07-17 11:54:00,
2013-07-17 08:00:00,74.8,74.5,30.19,ENE,66,0.0,1.0,99,0.00,,,0.00,105.0,meteohub,2013-07-17 12:00:00,
2013-07-17 08:06:00,75.0,74.7,30.20,ENE,63,0.0,1.0,99,0.00,,,0.00,76.0,meteohub,2013-07-17 12:06:00,
2013-07-17 08:12:00,75.4,75.0,30.20,NNE,24,0.0,3.0,99,0.00,,,0.00,67.0,meteohub,2013-07-17 12:12:00,
2013-07-17 08:17:00,75.6,75.2,30.20,NNE,28,1.0,3.0,99,0.00,,,0.00,49.0,meteohub,2013-07-17 12:17:00,
2013-07-17 08:25:00,75.9,75.6,30.20,NE,51,1.0,3.0,99,0.00,,,0.00,56.0,meteohub,2013-07-17 12:25:00,
2013-07-17 08:31:00,76.3,75.7,30.21,NNE,16,2.0,3.0,98,0.00,,,0.00,67.0,meteohub,2013-07-17 12:31:00,
2013-07-17 08:37:00,76.8,75.9,30.21,NNE,16,0.0,3.0,97,0.00,,,0.00,49.0,meteohub,2013-07-17 12:37:00,
2013-07-17 08:42:00,77.4,76.1,30.21,NNE,22,0.0,3.0,96,0.00,,,0.00,49.0,meteohub,2013-07-17 12:42:00,
2013-07-17 08:47:00,77.7,76.1,30.21,NE,37,1.0,3.0,95,0.00,,,0.00,53.0,meteohub,2013-07-17 12:47:00,
2013-07-17 08:52:00,78.1,76.3,30.22,NE,39,2.0,3.0,94,0.00,,,0.00,51.0,meteohub,2013-07-17 12:52:00,
2013-07-17 08:57:00,78.4,75.9,30.22,ENE,67,1.0,4.0,92,0.00,,,0.00,56.0,meteohub,2013-07-17 12:57:00,
2013-07-17 09:02:00,79.0,76.5,30.22,NNE,21,1.0,4.0,92,0.00,,,0.00,88.0,meteohub,2013-07-17 13:02:00,
2013-07-17 09:07:00,79.2,76.3,30.22,NNE,15,1.0,4.0,91,0.00,,,0.00,311.0,meteohub,2013-07-17 13:07:00,
2013-07-17 09:12:00,79.9,77.0,30.22,NE,45,1.0,4.0,91,0.00,,,0.00,410.0,meteohub,2013-07-17 13:12:00,
2013-07-17 09:17:00,80.1,76.5,30.22,NNE,23,3.0,4.0,89,0.00,,,0.00,67.0,meteohub,2013-07-17 13:17:00,
2013-07-17 09:23:00,80.8,76.5,30.22,NNE,18,2.0,4.0,87,0.00,,,0.00,434.0,meteohub,2013-07-17 13:23:00,
2013-07-17 09:30:00,81.3,76.6,30.22,NE,42,2.0,5.0,86,0.00,,,0.00,531.0,meteohub,2013-07-17 13:30:00,
2013-07-17 09:36:00,81.1,76.5,30.22,ENE,71,2.0,5.0,86,0.00,,,0.00,158.0,meteohub,2013-07-17 13:36:00,
2013-07-17 09:42:00,81.3,76.5,30.22,WNW,297,2.0,5.0,85,0.00,,,0.00,185.0,meteohub,2013-07-17 13:42:00,
2013-07-17 09:47:00,81.3,76.5,30.22,NE,39,1.0,5.0,85,0.00,,,0.00,179.0,meteohub,2013-07-17 13:47:00,
2013-07-17 09:52:00,81.7,76.3,30.22,ENE,75,2.0,4.0,84,0.00,,,0.00,214.0,meteohub,2013-07-17 13:52:00,
2013-07-17 09:57:00,82.2,76.8,30.22,North,5,2.0,4.0,84,0.00,,,0.00,642.0,meteohub,2013-07-17 13:57:00,
2013-07-17 10:04:00,82.9,76.1,30.21,NNE,30,3.0,5.0,80,0.00,,,0.00,638.0,meteohub,2013-07-17 14:04:00,
2013-07-17 10:10:00,83.3,76.1,30.21,North,10,2.0,5.0,79,0.00,,,0.00,679.0,meteohub,2013-07-17 14:10:00,
2013-07-17 10:16:00,82.9,76.1,30.21,East,94,1.0,5.0,80,0.00,,,0.00,701.0,meteohub,2013-07-17 14:16:00,
2013-07-17 10:22:00,82.8,75.6,30.22,East,84,2.0,7.0,79,0.00,,,0.00,162.0,meteohub,2013-07-17 14:22:00,
2013-07-17 10:27:00,82.2,75.7,30.21,NNE,23,2.0,7.0,81,0.00,,,0.00,162.0,meteohub,2013-07-17 14:27:00,
2013-07-17 10:32:00,82.9,75.4,30.21,NE,44,2.0,7.0,78,0.00,,,0.00,779.0,meteohub,2013-07-17 14:32:00,
2013-07-17 10:37:00,83.5,75.6,30.21,NNE,15,2.0,4.0,77,0.00,,,0.00,162.0,meteohub,2013-07-17 14:37:00,
2013-07-17 10:42:00,82.9,75.4,30.22,SE,126,0.0,4.0,78,0.00,,,0.00,780.0,meteohub,2013-07-17 14:42:00,
2013-07-17 10:47:00,83.8,75.0,30.21,WSW,253,1.0,4.0,75,0.00,,,0.00,831.0,meteohub,2013-07-17 14:47:00,
2013-07-17 10:52:00,84.9,75.7,30.21,SSE,162,2.0,6.0,74,0.00,,,0.00,802.0,meteohub,2013-07-17 14:52:00,
2013-07-17 10:57:00,84.6,75.0,30.21,NE,51,0.0,6.0,73,0.00,,,0.00,858.0,meteohub,2013-07-17 14:57:00,
2013-07-17 11:02:00,85.3,76.1,30.21,NNE,19,2.0,4.0,74,0.00,,,0.00,926.0,meteohub,2013-07-17 15:02:00,
2013-07-17 11:08:00,85.6,75.6,30.21,NNE,33,2.0,4.0,72,0.00,,,0.00,874.0,meteohub,2013-07-17 15:08:00,
2013-07-17 11:15:00,85.5,74.1,30.21,NE,45,1.0,4.0,69,0.00,,,0.00,214.0,meteohub,2013-07-17 15:15:00,
2013-07-17 11:21:00,84.6,75.4,30.21,ESE,103,1.0,4.0,74,0.00,,,0.00,942.0,meteohub,2013-07-17 15:21:00,
2013-07-17 11:27:00,85.3,73.9,30.21,NE,47,1.0,4.0,69,0.00,,,0.00,954.0,meteohub,2013-07-17 15:27:00,
2013-07-17 11:32:00,86.4,75.4,30.20,ESE,111,1.0,4.0,70,0.00,,,0.00,995.0,meteohub,2013-07-17 15:32:00,
2013-07-17 11:37:00,86.7,74.5,30.20,East,81,0.0,4.0,67,0.00,,,0.00,1014.0,meteohub,2013-07-17 15:37:00,
2013-07-17 11:42:00,86.5,75.2,30.20,NE,34,0.0,6.0,69,0.00,,,0.00,341.0,meteohub,2013-07-17 15:42:00,
2013-07-17 11:47:00,86.4,75.0,30.21,NE,40,2.0,6.0,69,0.00,,,0.00,1095.0,meteohub,2013-07-17 15:47:00,
2013-07-17 11:52:00,87.1,76.1,30.21,NE,34,3.0,6.0,70,0.00,,,0.00,1143.0,meteohub,2013-07-17 15:52:00,
2013-07-17 11:57:00,87.1,74.8,30.21,NE,34,0.0,6.0,67,0.00,,,0.00,751.0,meteohub,2013-07-17 15:57:00,
2013-07-17 12:02:00,88.0,76.5,30.21,NE,42,3.0,5.0,69,0.00,,,0.00,1004.0,meteohub,2013-07-17 16:02:00,
2013-07-17 12:07:00,86.7,73.6,30.20,NE,55,1.0,5.0,65,0.00,,,0.00,229.0,meteohub,2013-07-17 16:07:00,
2013-07-17 12:12:00,85.5,75.0,30.20,NE,42,2.0,4.0,71,0.00,,,0.00,206.0,meteohub,2013-07-17 16:12:00,
2013-07-17 12:17:00,86.7,77.0,30.20,East,86,1.0,4.0,73,0.00,,,0.00,1023.0,meteohub,2013-07-17 16:17:00,
2013-07-17 12:22:00,88.2,76.6,30.20,NNE,24,3.0,4.0,69,0.00,,,0.00,1104.0,meteohub,2013-07-17 16:22:00,
2013-07-17 12:29:00,86.9,73.8,30.20,NE,38,3.0,4.0,65,0.00,,,0.00,202.0,meteohub,2013-07-17 16:29:00,
2013-07-17 12:35:00,86.2,75.2,30.20,East,85,2.0,5.0,70,0.00,,,0.00,1053.0,meteohub,2013-07-17 16:35:00,
2013-07-17 12:41:00,87.4,74.3,30.19,South,169,2.0,5.0,65,0.00,,,0.00,1093.0,meteohub,2013-07-17 16:41:00,
2013-07-17 12:47:00,87.6,73.4,30.20,NNE,26,4.0,5.0,63,0.00,,,0.00,1035.0,meteohub,2013-07-17 16:47:00,
2013-07-17 12:52:00,88.2,73.9,30.19,NE,54,0.0,5.0,63,0.00,,,0.00,1020.0,meteohub,2013-07-17 16:52:00,
2013-07-17 12:57:00,89.1,73.9,30.19,ENE,63,2.0,5.0,61,0.00,,,0.00,1030.0,meteohub,2013-07-17 16:57:00,
2013-07-17 13:02:00,88.9,73.8,30.19,ENE,72,2.0,5.0,61,0.00,,,0.00,1088.0,meteohub,2013-07-17 17:02:00,
2013-07-17 13:07:00,88.9,74.1,30.19,North,5,2.0,5.0,62,0.00,,,0.00,1172.0,meteohub,2013-07-17 17:07:00,
2013-07-17 13:12:00,88.9,73.8,30.19,South,188,0.0,6.0,61,0.00,,,0.00,1009.0,meteohub,2013-07-17 17:12:00,
2013-07-17 13:17:00,89.2,75.0,30.18,North,355,2.0,6.0,63,0.00,,,0.00,1048.0,meteohub,2013-07-17 17:17:00,
2013-07-17 13:22:00,90.0,72.7,30.18,NNE,22,2.0,5.0,57,0.00,,,0.00,1072.0,meteohub,2013-07-17 17:22:00,
2013-07-17 13:27:00,90.0,73.2,30.18,NE,53,2.0,5.0,58,0.00,,,0.00,1011.0,meteohub,2013-07-17 17:27:00,
2013-07-17 13:32:00,89.2,72.0,30.18,NNE,15,2.0,5.0,57,0.00,,,0.00,186.0,meteohub,2013-07-17 17:32:00,
2013-07-17 13:37:00,89.2,72.0,30.18,SE,140,4.0,5.0,57,0.00,,,0.00,1014.0,meteohub,2013-07-17 17:37:00,
2013-07-17 13:42:00,89.8,73.6,30.17,SSE,151,1.0,4.0,59,0.00,,,0.00,1004.0,meteohub,2013-07-17 17:42:00,
2013-07-17 13:47:00,90.3,73.6,30.17,ENE,69,3.0,4.0,58,0.00,,,0.00,972.0,meteohub,2013-07-17 17:47:00,
2013-07-17 13:52:00,89.8,72.5,30.17,NE,40,3.0,6.0,57,0.00,,,0.00,984.0,meteohub,2013-07-17 17:52:00,
2013-07-17 13:57:00,90.1,70.7,30.17,NNE,19,2.0,6.0,53,0.00,,,0.00,1097.0,meteohub,2013-07-17 17:57:00,
2013-07-17 14:02:00,89.8,72.0,30.17,NNE,22,3.0,6.0,56,0.00,,,0.00,1072.0,meteohub,2013-07-17 18:02:00,
2013-07-17 14:07:00,90.1,73.4,30.17,ENE,61,0.0,6.0,58,0.00,,,0.00,1021.0,meteohub,2013-07-17 18:07:00,
2013-07-17 14:12:00,89.4,73.2,30.17,NE,49,1.0,5.0,59,0.00,,,0.00,867.0,meteohub,2013-07-17 18:12:00,
2013-07-17 14:17:00,89.1,71.8,30.17,WSW,251,1.0,5.0,57,0.00,,,0.00,1011.0,meteohub,2013-07-17 18:17:00,
2013-07-17 14:22:00,90.0,73.8,30.17,ENE,59,2.0,5.0,59,0.00,,,0.00,969.0,meteohub,2013-07-17 18:22:00,
2013-07-17 14:27:00,89.8,72.0,30.16,ENE,71,2.0,5.0,56,0.00,,,0.00,970.0,meteohub,2013-07-17 18:27:00,
2013-07-17 14:32:00,90.3,72.5,30.16,SSE,161,0.0,5.0,56,0.00,,,0.00,940.0,meteohub,2013-07-17 18:32:00,
2013-07-17 14:37:00,89.8,69.3,30.16,SSE,161,2.0,5.0,51,0.00,,,0.00,970.0,meteohub,2013-07-17 18:37:00,
2013-07-17 14:44:00,90.1,71.8,30.16,NNE,30,3.0,5.0,55,0.00,,,0.00,944.0,meteohub,2013-07-17 18:44:00,
2013-07-17 14:50:00,90.1,71.2,30.16,SSE,159,3.0,5.0,54,0.00,,,0.00,951.0,meteohub,2013-07-17 18:50:00,
2013-07-17 14:56:00,90.1,69.6,30.15,East,83,0.0,5.0,51,0.00,,,0.00,942.0,meteohub,2013-07-17 18:56:00,
2013-07-17 15:02:00,90.7,70.7,30.15,SSE,154,2.0,6.0,52,0.00,,,0.00,942.0,meteohub,2013-07-17 19:02:00,
2013-07-17 15:07:00,91.0,70.9,30.15,NE,34,2.0,6.0,52,0.00,,,0.00,946.0,meteohub,2013-07-17 19:07:00,
2013-07-17 15:12:00,91.2,73.4,30.15,NE,53,3.0,6.0,56,0.00,,,0.00,925.0,meteohub,2013-07-17 19:12:00,
2013-07-17 15:17:00,90.5,73.2,30.15,ENE,61,1.0,6.0,57,0.00,,,0.00,916.0,meteohub,2013-07-17 19:17:00,
2013-07-17 15:22:00,90.7,69.4,30.14,ENE,65,3.0,6.0,50,0.00,,,0.00,940.0,meteohub,2013-07-17 19:22:00,
2013-07-17 15:27:00,90.3,72.5,30.14,SSE,151,2.0,6.0,56,0.00,,,0.00,891.0,meteohub,2013-07-17 19:27:00,
2013-07-17 15:32:00,90.3,72.5,30.14,NE,46,3.0,5.0,56,0.00,,,0.00,851.0,meteohub,2013-07-17 19:32:00,
2013-07-17 15:37:00,90.1,72.9,30.13,NE,44,1.0,5.0,57,0.00,,,0.00,872.0,meteohub,2013-07-17 19:37:00,
2013-07-17 15:43:00,90.9,73.6,30.14,SE,143,3.0,7.0,57,0.00,,,0.00,874.0,meteohub,2013-07-17 19:43:00,
2013-07-17 15:49:00,90.9,74.1,30.13,SSE,148,1.0,7.0,58,0.00,,,0.00,919.0,meteohub,2013-07-17 19:49:00,
2013-07-17 15:55:00,89.2,72.5,30.12,SSE,158,3.0,9.0,58,0.00,,,0.00,833.0,meteohub,2013-07-17 19:55:00,
2013-07-17 16:01:00,90.1,73.4,30.13,SSW,206,2.0,9.0,58,0.00,,,0.00,824.0,meteohub,2013-07-17 20:01:00,
2013-07-17 16:07:00,90.1,73.4,30.13,NE,38,1.0,9.0,58,0.00,,,0.00,803.0,meteohub,2013-07-17 20:07:00,
2013-07-17 16:12:00,90.0,73.2,30.13,East,83,1.0,5.0,58,0.00,,,0.00,798.0,meteohub,2013-07-17 20:12:00,
2013-07-17 16:17:00,89.8,73.6,30.12,East,90,2.0,5.0,59,0.00,,,0.00,775.0,meteohub,2013-07-17 20:17:00,
2013-07-17 16:22:00,90.0,72.7,30.12,SSE,155,1.0,9.0,57,0.00,,,0.00,759.0,meteohub,2013-07-17 20:22:00,
2013-07-17 16:27:00,90.1,73.4,30.12,SSW,197,1.0,9.0,58,0.00,,,0.00,756.0,meteohub,2013-07-17 20:27:00,
2013-07-17 16:32:00,89.8,73.0,30.11,NW,313,1.0,5.0,58,0.00,,,0.00,751.0,meteohub,2013-07-17 20:32:00,
2013-07-17 16:37:00,89.8,73.6,30.12,NNE,33,2.0,5.0,59,0.00,,,0.00,735.0,meteohub,2013-07-17 20:37:00,
2013-07-17 16:42:00,90.0,71.6,30.11,NNE,19,1.0,5.0,55,0.00,,,0.00,724.0,meteohub,2013-07-17 20:42:00,
2013-07-17 16:47:00,89.8,71.4,30.11,ESE,113,1.0,5.0,55,0.00,,,0.00,679.0,meteohub,2013-07-17 20:47:00,
2013-07-17 16:52:00,89.4,72.1,30.11,South,182,2.0,5.0,57,0.00,,,0.00,643.0,meteohub,2013-07-17 20:52:00,
2013-07-17 16:57:00,89.2,71.4,30.11,East,92,1.0,5.0,56,0.00,,,0.00,657.0,meteohub,2013-07-17 20:57:00,
2013-07-17 17:02:00,89.1,70.2,30.11,East,97,2.0,5.0,54,0.00,,,0.00,656.0,meteohub,2013-07-17 21:02:00,
2013-07-17 17:07:00,89.4,70.5,30.11,ENE,61,3.0,5.0,54,0.00,,,0.00,645.0,meteohub,2013-07-17 21:07:00,
2013-07-17 17:12:00,89.2,70.3,30.11,SE,124,1.0,6.0,54,0.00,,,0.00,635.0,meteohub,2013-07-17 21:12:00,
2013-07-17 17:17:00,89.1,69.1,30.10,ESE,113,0.0,6.0,52,0.00,,,0.00,624.0,meteohub,2013-07-17 21:17:00,
2013-07-17 17:25:00,89.2,68.2,30.10,SE,138,1.0,5.0,50,0.00,,,0.00,596.0,meteohub,2013-07-17 21:25:00,
2013-07-17 17:31:00,89.2,69.3,30.10,ENE,75,1.0,4.0,52,0.00,,,0.00,559.0,meteohub,2013-07-17 21:31:00,
2013-07-17 17:37:00,89.2,70.9,30.09,East,83,2.0,4.0,55,0.00,,,0.00,577.0,meteohub,2013-07-17 21:37:00,
2013-07-17 17:42:00,89.1,72.3,30.09,SE,141,0.0,3.0,58,0.00,,,0.00,557.0,meteohub,2013-07-17 21:42:00,
2013-07-17 17:49:00,88.7,72.0,30.09,East,84,4.0,5.0,58,0.00,,,0.00,468.0,meteohub,2013-07-17 21:49:00,
2013-07-17 17:55:00,88.0,72.3,30.09,SE,136,2.0,5.0,60,0.00,,,0.00,425.0,meteohub,2013-07-17 21:55:00,
2013-07-17 18:02:00,88.0,72.9,30.09,East,93,2.0,5.0,61,0.00,,,0.00,387.0,meteohub,2013-07-17 22:02:00,
2013-07-17 18:07:00,87.6,73.4,30.09,SE,132,2.0,5.0,63,0.00,,,0.00,206.0,meteohub,2013-07-17 22:07:00,
2013-07-17 18:12:00,87.4,72.9,30.09,South,173,2.0,9.0,62,0.00,,,0.00,79.0,meteohub,2013-07-17 22:12:00,
2013-07-17 18:17:00,87.4,72.9,30.09,SE,134,2.0,9.0,62,0.00,,,0.00,56.0,meteohub,2013-07-17 22:17:00,
2013-07-17 18:24:00,87.1,72.5,30.09,NE,52,2.0,9.0,62,0.00,,,0.00,53.0,meteohub,2013-07-17 22:24:00,
2013-07-17 18:30:00,86.7,72.1,30.09,SE,138,0.0,3.0,62,0.00,,,0.00,60.0,meteohub,2013-07-17 22:30:00,
2013-07-17 18:36:00,86.5,72.5,30.09,East,81,1.0,3.0,63,0.00,,,0.00,72.0,meteohub,2013-07-17 22:36:00,
2013-07-17 18:42:00,86.2,72.5,30.09,NNE,17,0.0,6.0,64,0.00,,,0.00,109.0,meteohub,2013-07-17 22:42:00,
2013-07-17 18:47:00,86.2,72.5,30.09,NNE,22,1.0,6.0,64,0.00,,,0.00,46.0,meteohub,2013-07-17 22:47:00,
2013-07-17 18:52:00,85.8,72.1,30.10,ENE,60,0.0,6.0,64,0.00,,,0.00,229.0,meteohub,2013-07-17 22:52:00,
2013-07-17 18:57:00,85.6,72.5,30.10,NNW,344,0.0,6.0,65,0.00,,,0.00,46.0,meteohub,2013-07-17 22:57:00,
2013-07-17 19:04:00,85.6,73.0,30.10,SSE,150,0.0,3.0,66,0.00,,,0.00,37.0,meteohub,2013-07-17 23:04:00,
2013-07-17 19:10:00,85.1,73.8,30.10,SSE,158,1.0,3.0,69,0.00,,,0.00,37.0,meteohub,2013-07-17 23:10:00,
2013-07-17 19:16:00,84.7,73.4,30.10,SE,136,0.0,2.0,69,0.00,,,0.00,35.0,meteohub,2013-07-17 23:16:00,
2013-07-17 19:22:00,84.6,73.8,30.10,ENE,70,1.0,4.0,70,0.00,,,0.00,33.0,meteohub,2013-07-17 23:22:00,
2013-07-17 19:27:00,84.4,73.0,30.10,SSE,150,0.0,4.0,69,0.00,,,0.00,30.0,meteohub,2013-07-17 23:27:00,
2013-07-17 19:32:00,83.8,73.0,30.10,SE,140,1.0,2.0,70,0.00,,,0.00,28.0,meteohub,2013-07-17 23:32:00,
2013-07-17 19:37:00,83.7,73.6,30.11,SE,138,0.0,2.0,72,0.00,,,0.00,26.0,meteohub,2013-07-17 23:37:00,
2013-07-17 19:44:00,83.1,72.7,30.11,SE,140,0.0,2.0,71,0.00,,,0.00,25.0,meteohub,2013-07-17 23:44:00,
2013-07-17 19:50:00,82.8,73.2,30.11,SE,138,0.0,2.0,73,0.00,,,0.00,21.0,meteohub,2013-07-17 23:50:00,
2013-07-17 20:02:00,82.0,72.9,30.11,SE,132,0.0,2.0,74,0.00,,,0.00,16.0,meteohub,2013-07-18 00:02:00,
2013-07-17 20:07:00,81.7,73.0,30.12,SE,132,0.0,2.0,75,0.00,,,0.00,14.0,meteohub,2013-07-18 00:07:00,
2013-07-17 20:12:00,81.1,72.9,30.12,SE,132,0.0,1.0,76,0.00,,,0.00,12.0,meteohub,2013-07-18 00:12:00,
2013-07-17 20:17:00,80.8,73.6,30.12,SE,132,0.0,1.0,79,0.00,,,0.00,9.0,meteohub,2013-07-18 00:17:00,
2013-07-17 20:22:00,80.2,73.0,30.12,SE,132,0.0,1.0,79,0.00,,,0.00,5.0,meteohub,2013-07-18 00:22:00,
2013-07-17 20:27:00,79.9,72.9,30.12,SE,130,0.0,1.0,79,0.00,,,0.00,0.0,meteohub,2013-07-18 00:27:00,
2013-07-17 20:41:00,78.6,73.0,30.13,SE,130,0.0,1.0,83,0.00,,,0.00,0.0,meteohub,2013-07-18 00:41:00,
2013-07-17 20:47:00,78.3,73.0,30.13,SE,130,0.0,1.0,84,0.00,,,0.00,0.0,meteohub,2013-07-18 00:47:00,
2013-07-17 20:52:00,77.7,72.5,30.13,SE,130,0.0,1.0,84,0.00,,,0.00,0.0,meteohub,2013-07-18 00:52:00,
2013-07-17 20:57:00,77.4,72.5,30.13,SE,130,0.0,1.0,85,0.00,,,0.00,0.0,meteohub,2013-07-18 00:57:00,
2013-07-17 21:02:00,77.2,72.3,30.14,SE,130,0.0,1.0,85,0.00,,,0.00,0.0,meteohub,2013-07-18 01:02:00,
2013-07-17 21:08:00,77.0,72.9,30.14,SE,130,0.0,1.0,87,0.00,,,0.00,0.0,meteohub,2013-07-18 01:08:00,
2013-07-17 21:15:00,76.8,72.7,30.14,SE,130,0.0,0.0,87,0.00,,,0.00,0.0,meteohub,2013-07-18 01:15:00,
2013-07-17 21:21:00,76.5,72.7,30.14,SE,130,0.0,0.0,88,0.00,,,0.00,0.0,meteohub,2013-07-18 01:21:00,
2013-07-17 21:27:00,76.3,72.5,30.14,SE,130,0.0,0.0,88,0.00,,,0.00,0.0,meteohub,2013-07-18 01:27:00,
2013-07-17 21:32:00,76.1,72.7,30.14,SE,130,0.0,1.0,89,0.00,,,0.00,0.0,meteohub,2013-07-18 01:32:00,
2013-07-17 21:37:00,75.7,72.3,30.14,SE,130,0.0,1.0,89,0.00,,,0.00,0.0,meteohub,2013-07-18 01:37:00,
2013-07-17 21:42:00,75.7,72.7,30.14,SE,130,0.0,0.0,90,0.00,,,0.00,0.0,meteohub,2013-07-18 01:42:00,
2013-07-17 21:49:00,75.7,72.9,30.14,SE,130,0.0,0.0,91,0.00,,,0.00,0.0,meteohub,2013-07-18 01:49:00,
2013-07-17 21:55:00,75.6,72.7,30.14,SE,130,0.0,0.0,91,0.00,,,0.00,0.0,meteohub,2013-07-18 01:55:00,
2013-07-17 22:01:00,75.6,72.7,30.14,SE,130,0.0,0.0,91,0.00,,,0.00,0.0,meteohub,2013-07-18 02:01:00,
2013-07-17 22:07:00,75.6,72.7,30.14,SE,130,0.0,0.0,91,0.00,,,0.00,0.0,meteohub,2013-07-18 02:07:00,
2013-07-17 22:13:00,75.4,72.9,30.14,SE,130,0.0,1.0,92,0.00,,,0.00,0.0,meteohub,2013-07-18 02:13:00,
2013-07-17 22:20:00,75.0,72.5,30.13,SE,130,0.0,1.0,92,0.00,,,0.00,0.0,meteohub,2013-07-18 02:20:00,
2013-07-17 22:26:00,75.0,72.9,30.13,SE,130,0.0,1.0,93,0.00,,,0.00,0.0,meteohub,2013-07-18 02:26:00,
2013-07-17 22:32:00,75.0,72.9,30.13,SE,130,0.0,1.0,93,0.00,,,0.00,0.0,meteohub,2013-07-18 02:32:00,
2013-07-17 22:37:00,75.0,72.9,30.14,SE,130,0.0,1.0,93,0.00,,,0.00,0.0,meteohub,2013-07-18 02:37:00,
2013-07-17 22:42:00,75.0,72.5,30.14,SE,130,0.0,1.0,92,0.00,,,0.00,0.0,meteohub,2013-07-18 02:42:00,
2013-07-17 22:47:00,74.8,72.7,30.14,SE,130,0.0,1.0,93,0.00,,,0.00,0.0,meteohub,2013-07-18 02:47:00,
2013-07-17 22:52:00,74.7,72.5,30.13,SE,130,0.0,1.0,93,0.00,,,0.00,0.0,meteohub,2013-07-18 02:52:00,
2013-07-17 22:57:00,74.5,72.3,30.13,SE,130,0.0,1.0,93,0.00,,,0.00,0.0,meteohub,2013-07-18 02:57:00,
2013-07-17 23:02:00,74.3,72.5,30.13,SE,130,0.0,1.0,94,0.00,,,0.00,0.0,meteohub,2013-07-18 03:02:00,
2013-07-17 23:07:00,74.1,72.3,30.13,SE,130,0.0,1.0,94,0.00,,,0.00,0.0,meteohub,2013-07-18 03:07:00,
2013-07-17 23:12:00,74.1,72.3,30.14,SE,130,0.0,0.0,94,0.00,,,0.00,0.0,meteohub,2013-07-18 03:12:00,
2013-07-17 23:17:00,74.1,72.3,30.14,SE,130,0.0,0.0,94,0.00,,,0.00,0.0,meteohub,2013-07-18 03:17:00,
2013-07-17 23:22:00,73.9,72.1,30.13,SE,130,0.0,0.0,94,0.00,,,0.00,0.0,meteohub,2013-07-18 03:22:00,
2013-07-17 23:27:00,73.9,72.1,30.14,SE,130,0.0,0.0,94,0.00,,,0.00,0.0,meteohub,2013-07-18 03:27:00,
2013-07-17 23:34:00,73.8,72.3,30.14,SE,130,0.0,0.0,95,0.00,,,0.00,0.0,meteohub,2013-07-18 03:34:00,
2013-07-17 23:40:00,73.6,72.1,30.14,SE,130,0.0,0.0,95,0.00,,,0.00,0.0,meteohub,2013-07-18 03:40:00,
2013-07-17 23:47:00,73.4,72.0,30.14,SE,130,0.0,0.0,95,0.00,,,0.00,0.0,meteohub,2013-07-18 03:47:00,
2013-07-17 23:52:00,73.2,71.8,30.13,SE,130,0.0,0.0,95,0.00,,,0.00,0.0,meteohub,2013-07-18 03:52:00,
2013-07-17 23:57:00,73.0,71.6,30.13,SE,130,0.0,0.0,95,0.00,,,0.00,0.0,meteohub,2013-07-18 03:57:00,